El Hierro > ESTACION METEOROLÓGICA Malpaso - El Pinar

DATOS ACTUALES Online

Ultima actulizacion 32 minutos

8.9 ºC

Temperatura

68

Humedad (%)

Presión (mb)

0

Precipitación (mm)

75.6 SW

Viento (Km/h)

DATOS DIARIOS

Temperatura últimas 24 horas (ºC)

Humedad últimas 24 horas (%)

Presión atmosférica últimas 24 horas (mb)

Precipitaciones últimas 23 horas (mm)

Viento últimas 24 horas (Km/h)

Hora Temperatura (°C) ºC Precipitación (mm) mm Presión (mb) mb Humedad (%) % Viento (Km/h) km/h
19 - 10:00 7.7 0 0 100 71.6 SW
19 - 11:00 8.1 0 0 100 62.9 SW
19 - 12:00 8.1 0 0 100 63.2 SW
19 - 13:00 8.4 0 0 99 62.2 SW
19 - 14:00 9.2 0 0 86 60.5 SW
19 - 15:00 9.4 0 0 87 61.6 SW
19 - 16:00 8.7 0 0 93 55.1 SW
19 - 17:00 8.7 0 0 70 57.6 SW
19 - 18:00 7.7 0 0 63 57.7 SW
19 - 19:00 7.2 0 0 78 53.8 SW
19 - 20:00 8.2 0 0 88 49.5 SW
19 - 21:00 7.5 0 0 86 43.5 SW
19 - 22:00 7.5 0 0 98 38.6 SW
19 - 23:00 7.7 0 0 97 37 SW
20 - 00:00 8.3 0 0 72 43.8 SW
20 - 01:00 7.6 0 0 58 45.3 SW
20 - 02:00 7.3 0 0 51 50.9 SW
20 - 03:00 7.7 0 0 55 52.2 SW
20 - 04:00 7.4 0 0 69 56.2 SW
20 - 05:00 7.4 0 0 73 59.7 SW
20 - 06:00 7.8 0 0 72 65.4 SW
20 - 07:00 7.6 0 0 82 74.3 SW
20 - 08:00 8.3 0 0 64 77.3 SW
20 - 09:00 8.9 0 0 68 75.6 SW
20 - 10:00
Apalmet utiliza cookies propias y de terceros para mejorar la usabilidad y la experiencia web. Política de cookies.